[[{"header":{"parameterUnit":"m.s-1","parameterCategory":2,"la1":30.2991,"la2":30.254,"lo1":-89.0895,"lo2":-89.0444,"dy":0.0017,"dx":0.0017,"nx":28,"ny":28,"refTime":"2024-07-20T21:00:00:Z","depth":"0","parameterNumber":2,"parameterNumberName":"U-component_of_CURRENTS"},"data":[0,0,0,0,0,0,0,0,0,0,0,0,0,0,0,0,0,0,0,0,0,0,0,0,0,0,0,0,0,0,0,0,0,0,0,0,0,0,0,0,0,0,0,0,0,0,0,0,0,0,0,0,0,0,0,0,0,0,0.4175,0.4175,0,0.4187,0.4187,0.4187,0.4154,0.4153,0.4152,0.4152,0.4178,0.418,0.4181,0,0,0,0,0,0,0,0,0,0,0,0,0,0.4166,0.4166,0.4175,0.4175,0.4176,0.4187,0.4187,0.4187,0.4154,0.4153,0.4152,0.4151,0.4178,0.4179,0.4181,0,0,0,0,0,0,0,0,0,0,0,0,0,0.417,0.4165,0.4175,0.4163,0.4162,0.4187,0.4187,0.4187,0.4154,0.4153,0.4152,0.4151,0.4177,0.4179,0.4181,0.4217,0,0,0.4188,0.4189,0,0,0,0,0,0,0,0,0.417,0.417,0.4164,0.4164,0.4163,0.417,0.4193,0.4199,0.4155,0.4154,0.4152,0.415,0.418,0.4181,0.4182,0.4219,0.422,0.4188,0.4189,0.419,0.4191,0,0,0,0,0,0,0,0.417,0.417,0.4177,0.4165,0.4164,0.4171,0.417,0.4194,0.4171,0.4154,0.4153,0.4159,0.4179,0.418,0.4182,0.422,0.4188,0.419,0.4191,0.4192,0.4476,0.4482,0,0,0,0,0,0,0.4173,0.4169,0.4176,0.4177,0.4167,0.4173,0.4171,0.4167,0.4171,0.4171,0.416,0.4157,0.4177,0.418,0.4183,0.4367,0.419,0.4192,0.4193,0.447,0.4478,0.4485,0,0,0,0,0,0,0.4172,0.4173,0.4176,0.4176,0.4178,0.4174,0.417,0.4168,0.4179,0.4175,0.4175,0.4174,0.4176,0.418,0.4261,0.4362,0.4193,0.4195,0.4463,0.4472,0.4481,0.4644,0,0,0,0,0,0,0.4172,0.4172,0.4178,0.4176,0.4178,0.4216,0.4171,0.4169,0.4185,0.4182,0.4188,0.4188,0.4176,0.4259,0.4264,0.4362,0.4197,0.4455,0.4467,0.4478,0.4631,0.4658,0.4681,0,0,0,0,0,0.4171,0.419,0.4178,0.418,0.4183,0.4218,0.4221,0.4212,0.4187,0.4213,0.4239,0.4188,0.4338,0.4265,0.4269,0.437,0.4449,0.4464,0.4477,0.4619,0.4653,0.468,0,0,0,0,0,0,0.4203,0.4188,0.4176,0.4191,0.4214,0.4214,0.4237,0.4226,0.4262,0.4269,0.4248,0.4254,0.4375,0.4357,0.4277,0.4497,0.4394,0.441,0.4501,0.4532,0.4557,0.4571,0.4198,0,0,0,0,0,0.421,0.4213,0.4214,0.4235,0.4244,0.4241,0.4255,0.4259,0.4285,0.4297,0.4308,0.4354,0.4437,0.4466,0.4522,0.4618,0.4632,0.4699,0.4724,0.4745,0.4768,0.4892,0.493,0.4531,0.4531,0.4531,0,0,0.423,0.4225,0.4228,0.4242,0.4251,0.4316,0.4247,0.4289,0.4368,0.4299,0.4409,0.4437,0.4487,0.4618,0.467,0.461,0.4872,0.4763,0.478,0.4791,0.4911,0.4949,0.4983,0.4541,0.4539,0.4537,0,0,0.4294,0.4268,0.43,0.433,0.4361,0.4376,0.4395,0.4418,0.4448,0.4551,0.4556,0.4649,0.4727,0.4806,0.4852,0.5052,0.5007,0.507,0.5197,0.5319,0.5351,0.538,0.5455,0.5489,0.5075,0.5075,0.5075,0,0.4334,0.4357,0.4324,0.4386,0.4427,0.4414,0.4494,0.4545,0.4604,0.4651,0.4617,0.4811,0.4836,0.5031,0.5109,0.5109,0.5145,0.5064,0.5348,0.5376,0.5403,0.5473,0.5508,0.5085,0.5084,0.5083,0.5082,0,0.4424,0.4461,0.4491,0.456,0.4608,0.4672,0.4734,0.48,0.4826,0.4867,0.5035,0.509,0.5197,0.5243,0.5235,0.5458,0.5413,0.5364,0.5255,0.5452,0.5514,0.5548,0.5098,0.5095,0.5092,0.509,0,0,0.4473,0.454,0.4553,0.4602,0.47,0.4745,0.49,0.5012,0.5107,0.519,0.533,0.5488,0.5479,0.5537,0.5553,0.5659,0.5877,0.5595,0.5597,0.5643,0.6126,0.5991,0.6014,0.5868,0.5875,0.5881,0.6094,0,0.456,0.4675,0.47,0.4845,0.491,0.4965,0.5097,0.5208,0.5294,0.543,0.5522,0.5658,0.5608,0.5668,0.5781,0.5855,0.5974,0.5822,0.5952,0.5956,0.579,0.6052,0.5711,0.5863,0.6126,0.6132,0.6136,0,0.4632,0.4701,0.4835,0.4956,0.4989,0.5089,0.5263,0.5383,0.5571,0.564,0.5788,0.5839,0.6041,0.5953,0.6196,0.6096,0.6144,0.6181,0.6189,0.6028,0.5886,0.5713,0.5914,0.5766,0.6187,0.6183,0.6179,0,0.4641,0.4786,0.4884,0.4934,0.509,0.517,0.5259,0.5437,0.5556,0.5778,0.5889,0.6083,0.6205,0.6319,0.6391,0.6316,0.6627,0.6522,0.6455,0.6443,0.6162,0.6113,0.6207,0.6724,0.6724,0.6723,0.6723,0,0.4702,0.478,0.4889,0.4949,0.5089,0.5181,0.5348,0.5471,0.5675,0.5837,0.5984,0.6157,0.6305,0.6473,0.6504,0.6599,0.6727,0.6546,0.6526,0.621,0.6165,0.6024,0.595,0.6731,0.6729,0.6728,0.6727,0,0.4709,0.4768,0.4891,0.5044,0.5092,0.5193,0.5382,0.5514,0.5691,0.5926,0.601,0.6273,0.6473,0.6597,0.6795,0.6738,0.6641,0.6827,0.6425,0.6354,0.6078,0.6025,0.5946,0.5779,0.6787,0.6786,0.6784,0,0.4728,0.4794,0.4943,0.5017,0.509,0.5232,0.5343,0.5516,0.5649,0.5982,0.6099,0.6374,0.6521,0.6757,0.671,0.6766,0.6617,0.6493,0.6293,0.6087,0.6016,0.5826,0.5678,0.5993,0.5985,0.5979,0.5974,0,0.4808,0.4846,0.4945,0.5062,0.5174,0.5292,0.5437,0.5529,0.5746,0.5902,0.611,0.625,0.6462,0.6353,0.6439,0.6428,0.6149,0.6363,0.6273,0.5535,0.5214,0.5029,0.5813,0.5918,0.5923,0.5927,0.593,0.5933,0.4863,0.4928,0.502,0.5104,0.5226,0.5295,0.5285,0.5434,0.555,0.5654,0.5936,0.5955,0.5994,0.6028,0.6,0.5728,0.578,0.552,0.5518,0.5383,0.5079,0.5734,0.5731,0.5735,0.5739,0.5742,0.5745,0,0.4898,0.4944,0.5054,0.511,0.5139,0.5208,0.5295,0.52,0.5179,0.536,0.5424,0.5361,0.526,0.5273,0.5112,0.4915,0.4687,0.4798,0.4451,0.4382,0.5073,0.4892,0.4554,0.4554,0.4554,0.4554,0.4554,0.4555,0.4921,0.4964,0.4964,0.4952,0.4972,0.4866,0.4817,0.4721,0.4728,0.4603,0.4507,0.4585,0.4769,0.4729,0.4511,0.4385,0.4087,0.3848,0.396,0.4432,0.4497,0.456,0.4376,0.3936,0.3935,0.3018,0.3011,0.3005]},{"header":{"parameterUnit":"m.s-1","parameterCategory":2,"la1":30.2991,"la2":30.254,"lo1":-89.0895,"lo2":-89.0444,"dy":0.0017,"dx":0.0017,"nx":28,"ny":28,"refTime":"2024-07-20T21:00:00:Z","depth":"0","parameterNumber":3,"parameterNumberName":"V-component_of_CURRENTS"},"data":[0,0,0,0,0,0,0,0,0,0,0,0,0,0,0,0,0,0,0,0,0,0,0,0,0,0,0,0,0,0,0,0,0,0,0,0,0,0,0,0,0,0,0,0,0,0,0,0,0,0,0,0,0,0,0,0,0,0,0.0141,0.0141,0,0.0069,0.0068,0.0067,0.0015,0.0015,0.0014,0.0014,-0.0091,-0.0093,-0.0096,0,0,0,0,0,0,0,0,0,0,0,0,0,0.0153,0.0153,0.0141,0.0141,0.014,0.0069,0.0068,0.0067,0.0015,0.0015,0.0014,0.0014,-0.009,-0.0093,-0.0096,0,0,0,0,0,0,0,0,0,0,0,0,0,0.0119,0.0153,0.0142,0.0108,0.0104,0.007,0.0068,0.0067,0.0015,0.0015,0.0014,0.0014,-0.0089,-0.0092,-0.0096,-0.0115,0,0,-0.0108,-0.011,0,0,0,0,0,0,0,0,0.0121,0.0118,0.0113,0.011,0.0106,0.0053,0.0034,0.0005,0.0015,0.0046,0.0014,0.0014,-0.0044,-0.0051,-0.0068,-0.012,-0.0124,-0.0109,-0.0111,-0.0113,-0.0114,0,0,0,0,0,0,0,0.0123,0.012,0.011,0.0113,0.0108,0.0068,0.0063,0.0028,0.0001,0.0043,0.004,0.0036,-0.0046,-0.0064,-0.007,-0.0126,-0.0109,-0.0112,-0.0114,-0.0116,-0.0184,-0.0184,0,0,0,0,0,0,0.0142,0.0123,0.0112,0.0108,0.0116,0.0069,0.0063,0.0068,0.0002,-0.0007,0.0037,0.0034,-0.0057,-0.0066,-0.0074,-0.0067,-0.0113,-0.0116,-0.0119,-0.0185,-0.0184,-0.0184,0,0,0,0,0,0,0.0143,0.0142,0.0115,0.0115,0.011,0.007,0.0075,0.0067,0.0056,-0.0002,-0.0013,0.0035,-0.0057,-0.0069,-0.0097,-0.0073,-0.0118,-0.0122,-0.0185,-0.0185,-0.0184,-0.0073,0,0,0,0,0,0,0.0144,0.0143,0.015,0.0117,0.011,0.0109,0.0075,0.0066,0.0055,0.0051,-0.0007,-0.0018,-0.0058,-0.009,-0.01,-0.0079,-0.0125,-0.0186,-0.0185,-0.0184,-0.0077,-0.0069,-0.0061,0,0,0,0,0,0.0144,0.0161,0.0151,0.015,0.0123,0.011,0.0103,0.0071,0.0055,0.0058,0.0017,-0.0016,-0.0091,-0.0093,-0.0105,-0.0084,-0.0187,-0.0185,-0.0184,-0.0081,-0.007,-0.0061,0,0,0,0,0,0,0.0164,0.0157,0.0145,0.0157,0.0141,0.0103,0.01,0.008,0.0049,0.0043,-0.0012,-0.0025,-0.0043,-0.008,-0.0081,-0.0102,-0.0143,-0.0145,-0.0061,-0.0051,-0.0043,0.0014,-0.0128,0,0,0,0,0,0.0175,0.0187,0.0168,0.0176,0.0172,0.0138,0.0127,0.0108,0.0078,0.0064,0.0026,-0.0016,-0.0049,-0.0062,-0.0103,-0.0111,-0.0119,-0.0106,-0.0098,-0.0091,-0.0053,-0.0047,-0.0034,-0.018,-0.018,-0.018,0,0,0.0183,0.0181,0.0186,0.0181,0.0163,0.0176,0.013,0.0124,0.0137,0.0057,0.0059,0.0007,-0.0048,-0.0059,-0.0069,-0.0084,-0.0057,-0.0089,-0.0082,-0.0048,-0.0044,-0.003,-0.0017,-0.0179,-0.0179,-0.0179,0,0,0.0214,0.0207,0.0231,0.0228,0.0216,0.0201,0.0207,0.0178,0.0168,0.0156,0.0106,0.0081,0.0022,0.0004,-0.0017,0.0013,-0.002,-0.0012,0.0086,0.0091,0.0104,0.0116,0.0119,0.013,0.0001,0.0001,0.0001,0,0.0223,0.0257,0.0233,0.0257,0.0271,0.0223,0.0258,0.024,0.0207,0.0221,0.017,0.0125,0.0061,0.0083,0.0083,0.0037,0.0033,0.0055,0.0106,0.0117,0.0127,0.0128,0.0138,0.0007,0.0006,0.0005,0.0005,0,0.0277,0.0304,0.0317,0.0343,0.035,0.0369,0.0355,0.036,0.0336,0.0323,0.0328,0.0249,0.0239,0.0198,0.0143,0.0189,0.016,0.0111,0.0091,0.015,0.0145,0.0154,0.0015,0.0013,0.0011,0.001,0,0,0.031,0.035,0.0359,0.0401,0.0404,0.0427,0.0454,0.0485,0.0541,0.0479,0.0554,0.0459,0.0431,0.0407,0.0341,0.0332,0.0367,0.026,0.0258,0.0283,0.0388,0.0324,0.0327,0.033,0.0332,0.0334,0.0355,0,0.0365,0.0445,0.0447,0.0531,0.0578,0.0566,0.0615,0.0633,0.0632,0.0688,0.0622,0.0647,0.0508,0.052,0.0487,0.041,0.0398,0.0367,0.0312,0.0311,0.0263,0.0338,0.0311,0.0325,0.0364,0.0365,0.0366,0,0.0428,0.0482,0.0573,0.0668,0.069,0.0736,0.0836,0.0873,0.0919,0.0924,0.0931,0.0884,0.0876,0.0745,0.066,0.0649,0.0536,0.0455,0.0453,0.0371,0.0266,0.0271,0.034,0.0086,0.038,0.0379,0.0378,0,0.0492,0.0579,0.0665,0.0691,0.0777,0.0837,0.0894,0.0953,0.1038,0.1099,0.1179,0.1122,0.115,0.1002,0.0806,0.0749,0.0712,0.061,0.0449,0.0443,0.0401,0.0387,0.024,0.056,0.056,0.056,0.056,0,0.0561,0.0636,0.0711,0.0764,0.0911,0.0935,0.1098,0.114,0.1255,0.1414,0.1324,0.1448,0.1218,0.1155,0.0924,0.0737,0.0803,0.0504,0.0459,0.0434,0.0423,0.0182,0.0046,0.0561,0.056,0.056,0.056,0,0.0618,0.0653,0.0776,0.0893,0.0943,0.1056,0.1245,0.1378,0.1454,0.1669,0.1713,0.1727,0.1656,0.1397,0.1188,0.0926,0.0572,0.0626,0.0609,0.056,0.0138,0.001,-0.0164,-0.0267,0.0465,0.0464,0.0463,0,0.0654,0.0717,0.0876,0.0984,0.1048,0.1217,0.1359,0.147,0.1631,0.1863,0.1999,0.2002,0.2045,0.1699,0.124,0.0851,0.0591,0.0545,0.041,0.0146,-0.0029,-0.0144,-0.0225,0.0396,0.0395,0.0394,0.0393,0,0.0746,0.0796,0.091,0.1123,0.1287,0.1472,0.1681,0.1832,0.2014,0.2212,0.2462,0.2518,0.2201,0.1802,0.123,0.0941,0.0352,0.0505,0.025,-0.0064,-0.0211,-0.0341,0.0342,0.0382,0.0383,0.0384,0.0384,0.0385,0.0835,0.094,0.1099,0.1301,0.1484,0.1715,0.1892,0.2131,0.2411,0.2715,0.2768,0.2883,0.2267,0.1497,0.1084,0.0263,0.0272,-0.002,-0.014,-0.0222,-0.0365,0.0291,0.0256,0.0256,0.0257,0.0257,0.0257,0,0.0971,0.1093,0.1282,0.1526,0.1731,0.1801,0.2108,0.23,0.2639,0.2906,0.3108,0.2837,0.2109,0.136,0.0251,-0.0308,-0.0498,-0.0593,-0.0764,-0.0806,-0.0201,-0.0253,-0.042,-0.042,-0.0419,-0.0419,-0.0419,-0.0419,0.1061,0.1261,0.1349,0.1692,0.1861,0.2132,0.2302,0.258,0.2806,0.3096,0.3147,0.314,0.2509,0.0622,-0.0651,-0.0913,-0.1242,-0.1354,-0.1501,-0.1118,-0.1074,-0.1032,-0.1114,-0.1459,-0.146,-0.2062,-0.2068,-0.2073]}],[{"header":{"parameterUnit":"m.s-1","parameterCategory":2,"la1":30.2991,"la2":30.254,"lo1":-89.0895,"lo2":-89.0444,"dy":0.0017,"dx":0.0017,"nx":28,"ny":28,"refTime":"2024-07-20T21:00:00:Z","depth":"2","parameterNumber":2,"parameterNumberName":"U-component_of_CURRENTS"},"data":[0,0,0,0,0,0,0,0,0,0,0,0,0,0,0,0,0,0,0,0,0,0,0,0,0,0,0,0,0,0,0,0,0,0,0,0,0,0,0,0,0,0,0,0,0,0,0,0,0,0,0,0,0,0,0,0,0,0,0.347,0.347,0,0.3503,0.3504,0.3504,0.3497,0.3496,0.3496,0.3495,0.3509,0.351,0.3511,0,0,0,0,0,0,0,0,0,0,0,0,0,0.3433,0.3434,0.347,0.347,0.3471,0.3503,0.3504,0.3504,0.3497,0.3496,0.3496,0.3495,0.3509,0.351,0.3511,0,0,0,0,0,0,0,0,0,0,0,0,0,0.3454,0.3434,0.347,0.3473,0.3473,0.3503,0.3504,0.3504,0.3497,0.3496,0.3495,0.3495,0.3509,0.351,0.3511,0.3532,0,0,0.3515,0.3515,0,0,0,0,0,0,0,0,0.3453,0.3455,0.3472,0.3473,0.3473,0.3497,0.3496,0.3513,0.3497,0.3486,0.3495,0.3494,0.3505,0.3507,0.3512,0.3532,0.3533,0.3515,0.3515,0.3516,0.3516,0,0,0,0,0,0,0,0.3452,0.3454,0.3481,0.3472,0.3474,0.3484,0.3486,0.3499,0.3497,0.3487,0.3487,0.3494,0.3505,0.3511,0.3512,0.3533,0.3515,0.3516,0.3516,0.3517,0.3672,0.3676,0,0,0,0,0,0,0.3451,0.3453,0.348,0.3482,0.3464,0.3485,0.3487,0.3488,0.3497,0.3499,0.3494,0.3493,0.3509,0.3511,0.3512,0.3628,0.3516,0.3517,0.3518,0.3669,0.3673,0.3677,0,0,0,0,0,0,0.345,0.3452,0.3479,0.347,0.3474,0.3487,0.3488,0.3489,0.351,0.3504,0.3504,0.3516,0.3508,0.3511,0.3547,0.3625,0.3518,0.3519,0.3665,0.367,0.3675,0.3801,0,0,0,0,0,0,0.3448,0.3452,0.3463,0.347,0.3475,0.3507,0.3489,0.3491,0.3516,0.3515,0.3522,0.3522,0.3508,0.3545,0.3548,0.3624,0.352,0.3661,0.3667,0.3673,0.3792,0.381,0.3825,0,0,0,0,0,0.3447,0.3462,0.3463,0.3467,0.3486,0.3509,0.3513,0.3518,0.3518,0.3533,0.3544,0.3522,0.3589,0.3548,0.3551,0.363,0.3657,0.3665,0.3673,0.3785,0.3806,0.3824,0,0,0,0,0,0,0.3456,0.3463,0.3464,0.3482,0.35,0.3508,0.3529,0.3533,0.3555,0.356,0.3549,0.3551,0.3628,0.3605,0.356,0.3696,0.3627,0.3636,0.3712,0.3732,0.3747,0.377,0.3521,0,0,0,0,0,0.3463,0.3473,0.3485,0.3503,0.3515,0.3527,0.3542,0.3547,0.3563,0.3572,0.3576,0.3601,0.3662,0.3672,0.3706,0.3757,0.3769,0.3816,0.3832,0.3846,0.3869,0.3974,0.4002,0.3702,0.3702,0.3702,0,0,0.347,0.3479,0.3484,0.3506,0.3521,0.3564,0.3535,0.3565,0.3614,0.3572,0.3635,0.366,0.3692,0.377,0.3801,0.3754,0.3933,0.3855,0.3867,0.3883,0.3985,0.4015,0.4041,0.3707,0.3706,0.3705,0,0,0.3493,0.3502,0.352,0.3543,0.3574,0.3597,0.3612,0.3632,0.3655,0.372,0.3726,0.3792,0.3842,0.3888,0.3923,0.4045,0.4028,0.4058,0.4142,0.4245,0.427,0.4293,0.4321,0.4345,0.405,0.405,0.405,0,0.3503,0.3533,0.3532,0.3567,0.3602,0.362,0.3668,0.3707,0.3738,0.3778,0.376,0.3902,0.3918,0.4048,0.4097,0.4087,0.4111,0.4063,0.4266,0.4289,0.4311,0.4334,0.4359,0.4057,0.4056,0.4056,0.4055,0,0.3539,0.3578,0.3598,0.3654,0.3692,0.3736,0.3789,0.3832,0.3875,0.3921,0.4047,0.4077,0.4162,0.419,0.4187,0.435,0.4307,0.4287,0.4215,0.4349,0.4364,0.4388,0.4067,0.4065,0.4062,0.4061,0,0,0.3521,0.3606,0.3615,0.3657,0.3743,0.3771,0.3876,0.3973,0.4055,0.4116,0.423,0.4349,0.4366,0.4407,0.4411,0.4489,0.4653,0.4454,0.4457,0.4478,0.4839,0.4722,0.4736,0.4673,0.4678,0.4683,0.478,0,0.3556,0.3624,0.3676,0.3775,0.3818,0.3887,0.3985,0.4077,0.4166,0.4276,0.4358,0.4481,0.4452,0.4508,0.4592,0.4663,0.4727,0.4625,0.4711,0.4713,0.4591,0.4765,0.4376,0.4424,0.4803,0.4807,0.4809,0,0.3576,0.3621,0.3707,0.3829,0.3859,0.3942,0.4093,0.4182,0.4351,0.4421,0.4551,0.4619,0.4778,0.4719,0.4907,0.4846,0.4861,0.4883,0.4887,0.4757,0.4644,0.4359,0.4453,0.4849,0.4846,0.4843,0.484,0,0.3541,0.365,0.3719,0.3757,0.3898,0.3974,0.4072,0.4234,0.4336,0.453,0.4639,0.4801,0.492,0.4999,0.5067,0.5013,0.5238,0.516,0.5051,0.5039,0.4714,0.4665,0.5282,0.5282,0.5282,0.5281,0.5281,0,0.3557,0.3614,0.3711,0.3756,0.3872,0.3965,0.4127,0.4242,0.4427,0.4572,0.4719,0.4856,0.5011,0.5145,0.5147,0.5197,0.5313,0.5112,0.5092,0.4742,0.4697,0.5064,0.5038,0.5285,0.5284,0.5284,0.5283,0,0.3521,0.3584,0.3671,0.381,0.3868,0.3948,0.4168,0.4269,0.4456,0.4651,0.4732,0.4973,0.5138,0.5233,0.5374,0.5311,0.5351,0.5314,0.4863,0.4789,0.5043,0.5023,0.5213,0.5211,0.5208,0.5207,0.5205,0,0.351,0.3547,0.3689,0.3755,0.3838,0.3973,0.4074,0.4268,0.4364,0.4699,0.4768,0.5032,0.5126,0.529,0.5256,0.5246,0.5323,0.4861,0.4695,0.5094,0.5055,0.5037,0.5019,0.4292,0.4283,0.4276,0.427,0,0.35,0.3553,0.3625,0.3746,0.3858,0.3951,0.4098,0.4169,0.4387,0.4512,0.4683,0.4806,0.501,0.485,0.4896,0.4829,0.4838,0.4712,0.5308,0.4375,0.4236,0.4193,0.4204,0.4205,0.4212,0.4216,0.422,0.4222,0.3512,0.3545,0.3642,0.3725,0.3843,0.3888,0.3881,0.3986,0.4062,0.4173,0.4425,0.4454,0.4548,0.4409,0.428,0.4201,0.4508,0.4282,0.43,0.4327,0.421,0.4076,0.3989,0.3994,0.3998,0.4002,0.4005,0,0.3449,0.3511,0.362,0.3689,0.369,0.3798,0.3849,0.3748,0.3684,0.3869,0.3925,0.3675,0.3608,0.3707,0.3487,0.3484,0.3412,0.3334,0.3195,0.3264,0.3325,0.3151,0.2651,0.2647,0.2642,0.2638,0,0,0.3474,0.3499,0.3518,0.348,0.3514,0.3416,0.3371,0.3256,0.3282,0.3187,0.3177,0.348,0.3633,0.3099,0.3027,0.2801,0.3005,0.2697,0.3796,0.3705,0.376,0.3901,0.3717,0,0,0,0,0]},{"header":{"parameterUnit":"m.s-1","parameterCategory":2,"la1":30.2991,"la2":30.254,"lo1":-89.0895,"lo2":-89.0444,"dy":0.0017,"dx":0.0017,"nx":28,"ny":28,"refTime":"2024-07-20T21:00:00:Z","depth":"2","parameterNumber":3,"parameterNumberName":"V-component_of_CURRENTS"},"data":[0,0,0,0,0,0,0,0,0,0,0,0,0,0,0,0,0,0,0,0,0,0,0,0,0,0,0,0,0,0,0,0,0,0,0,0,0,0,0,0,0,0,0,0,0,0,0,0,0,0,0,0,0,0,0,0,0,0,0.0093,0.0093,0,0.0031,0.003,0.0029,-0.0018,-0.0018,-0.0018,-0.0018,-0.0108,-0.011,-0.0112,0,0,0,0,0,0,0,0,0,0,0,0,0,0.0103,0.0103,0.0094,0.0093,0.0092,0.0031,0.003,0.0029,-0.0018,-0.0018,-0.0018,-0.0019,-0.0107,-0.0109,-0.0112,0,0,0,0,0,0,0,0,0,0,0,0,0,0.0074,0.0103,0.0094,0.0063,0.0059,0.0031,0.003,0.0029,-0.0017,-0.0018,-0.0018,-0.0019,-0.0106,-0.0109,-0.0112,-0.0123,0,0,-0.0122,-0.0123,0,0,0,0,0,0,0,0,0.0076,0.0074,0.0068,0.0065,0.0061,0.0016,0.0001,-0.0023,-0.0017,0.001,-0.0018,-0.0019,-0.0068,-0.0074,-0.0087,-0.0128,-0.0131,-0.0122,-0.0124,-0.0126,-0.0126,0,0,0,0,0,0,0,0.0078,0.0076,0.0067,0.0067,0.0063,0.0028,0.0024,-0.0004,-0.0027,0.0008,0.0005,0.0,-0.007,-0.0083,-0.0089,-0.0133,-0.0122,-0.0125,-0.0127,-0.0128,-0.0175,-0.0174,0,0,0,0,0,0,0.0093,0.0078,0.0069,0.0065,0.0069,0.0029,0.0024,0.0029,-0.0027,-0.0035,0.0001,-0.0002,-0.0078,-0.0085,-0.0092,-0.0081,-0.0126,-0.0129,-0.013,-0.0175,-0.0174,-0.0174,0,0,0,0,0,0,0.0094,0.0093,0.0072,0.0071,0.0066,0.003,0.0035,0.0028,0.0019,-0.0031,-0.0041,-0.0,-0.0078,-0.0088,-0.0108,-0.0086,-0.013,-0.0133,-0.0176,-0.0175,-0.0174,-0.0077,0,0,0,0,0,0,0.0095,0.0094,0.0101,0.0072,0.0067,0.0069,0.0036,0.0027,0.0018,0.0014,-0.0035,-0.0044,-0.0079,-0.0103,-0.0111,-0.0091,-0.0135,-0.0177,-0.0176,-0.0174,-0.0081,-0.0073,-0.0066,0,0,0,0,0,0.0095,0.0112,0.0102,0.0101,0.0078,0.007,0.0064,0.0034,0.0019,0.0023,-0.0012,-0.0042,-0.0101,-0.0105,-0.0115,-0.0095,-0.0177,-0.0176,-0.0174,-0.0085,-0.0075,-0.0066,0,0,0,0,0,0,0.0115,0.0108,0.0097,0.0109,0.0096,0.0063,0.0061,0.0043,0.0019,0.0012,-0.0036,-0.0047,-0.0059,-0.009,-0.0094,-0.0106,-0.0144,-0.0144,-0.0072,-0.0063,-0.0055,-0.002,-0.0138,0,0,0,0,0,0.0125,0.0137,0.012,0.0128,0.0126,0.0095,0.0087,0.007,0.0045,0.0033,0.0,-0.0035,-0.0061,-0.0071,-0.0105,-0.0108,-0.0141,-0.0102,-0.0095,-0.0088,-0.0066,-0.0096,-0.0089,-0.0169,-0.0169,-0.0169,0,0,0.0133,0.0131,0.0136,0.0134,0.0118,0.0134,0.0089,0.0084,0.01,0.0027,0.0033,-0.0013,-0.0058,-0.0064,-0.0072,-0.0086,-0.0086,-0.0086,-0.0079,-0.0062,-0.0094,-0.0086,-0.0079,-0.0168,-0.0168,-0.0168,0,0,0.0164,0.0156,0.0181,0.018,0.0171,0.0158,0.0164,0.0139,0.0131,0.0127,0.0079,0.0054,0.0014,-0.0009,-0.0026,0.0006,-0.005,-0.0011,0.0064,0.0035,0.0041,0.0047,0.0003,0.0004,-0.0,-0.0,0.0,0,0.0173,0.0208,0.0184,0.0211,0.0225,0.0179,0.0216,0.0201,0.0174,0.018,0.0143,0.0094,0.0047,0.0053,0.0059,0.0026,-0.0007,0.0034,0.0046,0.0051,0.0055,0.0009,0.0009,0.0005,0.0004,0.0004,0.0003,0,0.0228,0.0257,0.0271,0.0298,0.0307,0.0328,0.0315,0.0319,0.0299,0.0283,0.0275,0.0207,0.0187,0.0158,0.0117,0.0128,0.0087,0.0055,0.0028,0.0069,0.0017,0.0016,0.0012,0.001,0.0009,0.0007,0,0,0.0257,0.0304,0.0311,0.0355,0.0362,0.0385,0.0411,0.0433,0.0472,0.0415,0.0457,0.0386,0.0343,0.0321,0.0259,0.0226,0.0208,0.0161,0.0157,0.0127,0.0132,0.0082,0.0074,0.0175,0.0176,0.0176,0.008,0,0.0312,0.0396,0.04,0.0487,0.0536,0.0521,0.0565,0.0575,0.0564,0.0586,0.0509,0.0515,0.0408,0.0407,0.0353,0.0255,0.0209,0.0236,0.0089,0.0085,0.0043,0.0074,0.0117,0.0034,0.0078,0.0078,0.0077,0,0.0373,0.043,0.0525,0.0619,0.064,0.0685,0.0762,0.0793,0.0796,0.0788,0.0759,0.0695,0.0645,0.0547,0.0396,0.0417,0.0288,0.0192,0.0186,0.0111,0.0032,0.0,0.0028,0.0074,0.0074,0.0074,0.0074,0,0.0433,0.0525,0.0614,0.0641,0.0726,0.0779,0.0829,0.0859,0.0925,0.0925,0.0968,0.0864,0.0851,0.0676,0.0463,0.0437,0.0285,0.0224,0.0051,0.0045,0.004,0.0033,0.0116,0.0116,0.0116,0.0116,0.0117,0,0.0506,0.058,0.0657,0.0711,0.0849,0.0872,0.1009,0.1034,0.1099,0.1208,0.1087,0.1138,0.0885,0.0761,0.053,0.0293,0.0334,0.0077,0.0027,0.0072,0.0069,0.0072,0.0068,0.0113,0.0114,0.0114,0.0115,0,0.0567,0.0604,0.0727,0.0838,0.0883,0.099,0.1151,0.1254,0.1288,0.1426,0.1443,0.1362,0.1194,0.0911,0.0635,0.0411,0.0168,0.0066,0.0126,0.0084,-0.0075,-0.0073,-0.0127,-0.013,-0.0132,-0.0133,-0.0135,0,0.0609,0.0673,0.0825,0.0929,0.0992,0.1146,0.1267,0.1345,0.1463,0.1575,0.1655,0.1541,0.1469,0.1026,0.0618,0.0209,0.0149,-0.0023,-0.0071,-0.0052,-0.0096,-0.009,-0.0086,-0.0049,-0.005,-0.005,-0.0051,0,0.0707,0.0752,0.0863,0.1061,0.121,0.1382,0.1553,0.1671,0.1785,0.1875,0.1963,0.1912,0.1519,0.1112,0.056,0.0286,0.0041,-0.0047,-0.0017,0.0004,0.0013,-0.0027,-0.0023,-0.0055,-0.0054,-0.0054,-0.0054,-0.0054,0.0789,0.0891,0.1034,0.1226,0.1395,0.1599,0.1741,0.1902,0.2072,0.2201,0.2165,0.2084,0.1659,0.0939,0.0472,-0.0008,0.0011,-0.0166,-0.0161,-0.0156,-0.0131,-0.0126,-0.0217,-0.0217,-0.0218,-0.0218,-0.0218,0,0.091,0.1021,0.1198,0.1419,0.1597,0.1671,0.192,0.2039,0.2214,0.2313,0.2336,0.193,0.1491,0.0996,0.029,-0.0138,-0.0158,-0.0282,-0.0206,-0.0198,-0.0192,-0.0167,-0.0264,-0.0265,-0.0267,-0.0268,0,0,0.0983,0.1165,0.1245,0.1541,0.1693,0.1915,0.2051,0.2197,0.2303,0.2351,0.2303,0.2214,0.1646,0.112,0.0545,0.0141,0.0066,0.0056,0.0142,0.0308,0.0319,-0.0075,-0.0021,0,0,0,0,0]}],[{"header":{"parameterUnit":"m.s-1","parameterCategory":2,"la1":30.2991,"la2":30.254,"lo1":-89.0895,"lo2":-89.0444,"dy":0.0017,"dx":0.0017,"nx":28,"ny":28,"refTime":"2024-07-20T21:00:00:Z","depth":"4","parameterNumber":2,"parameterNumberName":"U-component_of_CURRENTS"},"data":[0,0,0,0,0,0,0,0,0,0,0,0,0,0,0,0,0,0,0,0,0,0,0,0,0,0,0,0,0,0,0,0,0,0,0,0,0,0,0,0,0,0,0,0,0,0,0,0,0,0,0,0,0,0,0,0,0,0,0.2237,0.2238,0,0.2316,0.2317,0.2317,0.2386,0.2387,0.2388,0.2389,0.2476,0.2478,0.2479,0,0,0,0,0,0,0,0,0,0,0,0,0,0.2142,0.2144,0.2237,0.2238,0.2239,0.2316,0.2317,0.2318,0.2386,0.2387,0.2389,0.239,0.2476,0.2477,0.2479,0,0,0,0,0,0,0,0,0,0,0,0,0,0.2196,0.2144,0.2236,0.2284,0.2289,0.2316,0.2317,0.2318,0.2386,0.2387,0.2389,0.239,0.2475,0.2477,0.2479,0.2462,0,0,0.2486,0.2487,0,0,0,0,0,0,0,0,0.2193,0.2199,0.2276,0.2281,0.2287,0.2345,0.2316,0.2367,0.2385,0.2347,0.2389,0.2391,0.2433,0.2439,0.2447,0.2466,0.247,0.2486,0.2487,0.2488,0.2489,0,0,0,0,0,0,0,0.2189,0.2196,0.2266,0.2277,0.2284,0.2301,0.231,0.2326,0.2379,0.235,0.2356,0.2368,0.2436,0.2445,0.245,0.2471,0.2486,0.2488,0.2489,0.249,0.2598,0.26,0,0,0,0,0,0,0.2183,0.2193,0.2263,0.2268,0.2245,0.2302,0.2312,0.2323,0.2379,0.239,0.2367,0.2371,0.2441,0.2447,0.2453,0.2556,0.2488,0.249,0.2491,0.2596,0.2598,0.26,0,0,0,0,0,0,0.218,0.2188,0.226,0.2234,0.2245,0.2302,0.2314,0.2324,0.2382,0.2392,0.2402,0.242,0.2442,0.245,0.2506,0.2555,0.2491,0.2493,0.2595,0.2597,0.2599,0.2684,0,0,0,0,0,0,0.2177,0.2187,0.2218,0.2234,0.2246,0.2303,0.2313,0.2324,0.2385,0.2392,0.244,0.2447,0.2444,0.2503,0.2509,0.2557,0.2494,0.2592,0.2596,0.2599,0.2679,0.2689,0.2697,0,0,0,0,0,0.2174,0.2198,0.2219,0.2229,0.2279,0.2305,0.2313,0.2356,0.2386,0.2414,0.2451,0.2448,0.2526,0.2506,0.2512,0.2562,0.2591,0.2595,0.2598,0.2675,0.2687,0.2697,0,0,0,0,0,0,0.2174,0.2208,0.2231,0.2267,0.23,0.2318,0.2356,0.2383,0.2434,0.2457,0.2468,0.2477,0.2541,0.2538,0.2515,0.2601,0.2559,0.2564,0.2615,0.2626,0.2635,0.2656,0.2496,0,0,0,0,0,0.2187,0.2219,0.2247,0.2282,0.2302,0.234,0.2368,0.2396,0.243,0.2457,0.2489,0.2522,0.2551,0.258,0.2596,0.2646,0.2667,0.2681,0.2691,0.2699,0.2719,0.2783,0.2801,0.2612,0.2612,0.2612,0,0,0.2196,0.2222,0.2242,0.2287,0.2318,0.2344,0.2361,0.2413,0.2451,0.2456,0.2532,0.2555,0.2569,0.2623,0.2653,0.2636,0.2765,0.2703,0.271,0.2726,0.2789,0.2808,0.2824,0.2615,0.2614,0.2614,0,0,0.2206,0.2257,0.2278,0.231,0.2365,0.2384,0.2409,0.2455,0.2501,0.2567,0.2578,0.2641,0.2685,0.2708,0.2723,0.2794,0.2805,0.28,0.2875,0.2938,0.2954,0.2969,0.303,0.3049,0.2812,0.2812,0.2812,0,0.2219,0.2247,0.2291,0.2317,0.2351,0.2405,0.2433,0.2478,0.2542,0.2592,0.2607,0.2711,0.2727,0.2797,0.2827,0.2818,0.2855,0.2832,0.2952,0.2966,0.298,0.3039,0.3059,0.2816,0.2816,0.2816,0.2815,0,0.2226,0.2268,0.2287,0.2337,0.2382,0.2418,0.2478,0.2543,0.2612,0.2663,0.2773,0.2807,0.2879,0.2889,0.2887,0.299,0.2985,0.295,0.2926,0.3005,0.3061,0.3081,0.2823,0.2821,0.282,0.2819,0,0,0.2192,0.2273,0.2284,0.2314,0.24,0.2425,0.2515,0.2599,0.2678,0.2767,0.287,0.2943,0.2998,0.3018,0.303,0.309,0.3221,0.3078,0.3079,0.3144,0.3377,0.3149,0.3148,0.3214,0.3218,0.3221,0.3381,0,0.2184,0.2223,0.228,0.2335,0.2358,0.2454,0.2533,0.2633,0.2733,0.2845,0.2935,0.3032,0.3034,0.3093,0.3159,0.3206,0.3277,0.3182,0.3286,0.329,0.3082,0.3164,0.3232,0.3396,0.34,0.3403,0.3406,0,0.2158,0.2193,0.2242,0.2339,0.2366,0.2428,0.2577,0.2659,0.2832,0.292,0.3054,0.3123,0.3259,0.323,0.3394,0.334,0.338,0.3404,0.341,0.3182,0.3097,0.3298,0.3441,0.3438,0.3436,0.3433,0.3431,0,0.2081,0.2161,0.2203,0.2235,0.2358,0.2435,0.2529,0.27,0.2805,0.2992,0.3094,0.3242,0.3356,0.3431,0.3515,0.3477,0.3667,0.3609,0.3442,0.3428,0.3549,0.3531,0.3718,0.3717,0.3717,0.3717,0.3716,0,0.2021,0.2054,0.2182,0.2204,0.2291,0.2413,0.2553,0.2665,0.2868,0.2992,0.3146,0.3254,0.3419,0.354,0.3571,0.3577,0.3726,0.3478,0.3456,0.358,0.3565,0.3564,0.3544,0.3723,0.3721,0.372,0.3719,0,0.1912,0.1995,0.2043,0.2191,0.2255,0.2326,0.2561,0.2659,0.2866,0.3035,0.3109,0.3335,0.3482,0.3601,0.3739,0.3641,0.3661,0.362,0.3781,0.3763,0.3371,0.3354,0.3449,0.3443,0.3437,0.3432,0.3428,0,0.1842,0.1856,0.2017,0.2072,0.215,0.2296,0.2407,0.2635,0.275,0.3049,0.3111,0.3341,0.3456,0.349,0.361,0.3656,0.3604,0.3586,0.3441,0.3375,0.3346,0.3337,0.3328,0.3419,0.3418,0.3416,0.3415,0,0.1698,0.1783,0.1849,0.198,0.2093,0.2177,0.2359,0.2434,0.2697,0.2912,0.3045,0.3122,0.3279,0.3368,0.3433,0.3447,0.3573,0.3526,0.3536,0.3399,0.334,0.3314,0.3312,0.3395,0.3398,0.34,0.3401,0,0.162,0.1632,0.1762,0.1869,0.199,0.2033,0.2133,0.2286,0.243,0.2771,0.2813,0.304,0.326,0.3264,0.332,0.3319,0.3256,0.3121,0.3151,0.3174,0.3001,0.2879,0.2794,0,0,0,0,0,0.1532,0.1568,0.1641,0.1743,0.1856,0.192,0.2098,0.2211,0.2482,0.251,0.266,0.2786,0.2881,0.3005,0.295,0.3176,0.3251,0.3092,0.3106,0.3286,0.3309,0.3126,0,0,0,0,0,0,0.1492,0.1562,0.1601,0.1628,0.1672,0.1757,0.1846,0.2003,0.2047,0.2332,0.2413,0.2612,0.2761,0.2899,0.2901,0.2933,0.2879,0.3246,0.3238,0.3274,0.3294,0.3312,0.3132,0,0,0,0,0]},{"header":{"parameterUnit":"m.s-1","parameterCategory":2,"la1":30.2991,"la2":30.254,"lo1":-89.0895,"lo2":-89.0444,"dy":0.0017,"dx":0.0017,"nx":28,"ny":28,"refTime":"2024-07-20T21:00:00:Z","depth":"4","parameterNumber":3,"parameterNumberName":"V-component_of_CURRENTS"},"data":[0,0,0,0,0,0,0,0,0,0,0,0,0,0,0,0,0,0,0,0,0,0,0,0,0,0,0,0,0,0,0,0,0,0,0,0,0,0,0,0,0,0,0,0,0,0,0,0,0,0,0,0,0,0,0,0,0,0,0.0085,0.0084,0,0.0045,0.0044,0.0044,0.001,0.001,0.001,0.0009,-0.0054,-0.0055,-0.0057,0,0,0,0,0,0,0,0,0,0,0,0,0,0.0089,0.0089,0.0085,0.0084,0.0084,0.0045,0.0044,0.0044,0.001,0.001,0.0009,0.0009,-0.0054,-0.0055,-0.0057,0,0,0,0,0,0,0,0,0,0,0,0,0,0.0071,0.0089,0.0085,0.0063,0.0061,0.0045,0.0044,0.0044,0.001,0.001,0.0009,0.0009,-0.0053,-0.0055,-0.0057,-0.0061,0,0,-0.0064,-0.0064,0,0,0,0,0,0,0,0,0.0072,0.0071,0.0067,0.0064,0.0062,0.0033,0.0023,0.0008,0.001,0.0029,0.0009,0.0009,-0.0026,-0.0031,-0.0038,-0.0064,-0.0066,-0.0064,-0.0065,-0.0066,-0.0066,0,0,0,0,0,0,0,0.0074,0.0072,0.0068,0.0066,0.0063,0.004,0.0038,0.0019,0.0003,0.0027,0.0025,0.0021,-0.0028,-0.0036,-0.004,-0.0067,-0.0064,-0.0065,-0.0067,-0.0068,-0.0086,-0.0086,0,0,0,0,0,0,0.0083,0.0074,0.007,0.0067,0.0067,0.0041,0.0038,0.0042,0.0004,-0.0002,0.0022,0.002,-0.0032,-0.0037,-0.0042,-0.0025,-0.0066,-0.0068,-0.0069,-0.0087,-0.0086,-0.0085,0,0,0,0,0,0,0.0083,0.0083,0.0071,0.0069,0.0066,0.0042,0.0046,0.0041,0.0036,0.0,-0.0006,0.0022,-0.0032,-0.0039,-0.0048,-0.0029,-0.0069,-0.0071,-0.0088,-0.0087,-0.0086,-0.0006,0,0,0,0,0,0,0.0084,0.0084,0.009,0.0071,0.0067,0.0072,0.0047,0.0041,0.0035,0.0032,-0.0002,-0.0008,-0.0033,-0.0044,-0.005,-0.0032,-0.0072,-0.0089,-0.0088,-0.0086,-0.001,-0.0002,0.0004,0,0,0,0,0,0.0084,0.0097,0.009,0.009,0.0076,0.0073,0.0069,0.0049,0.0036,0.0041,0.0019,-0.0007,-0.0039,-0.0045,-0.0052,-0.0034,-0.009,-0.0088,-0.0086,-0.0013,-0.0004,0.0004,0,0,0,0,0,0,0.0099,0.0095,0.0087,0.0097,0.0089,0.0068,0.0068,0.0055,0.0041,0.0038,0.0003,-0.0005,-0.0006,-0.0031,-0.0037,-0.0036,-0.0069,-0.0068,-0.0011,-0.0003,0.0004,0.0017,-0.0074,0,0,0,0,0,0.0107,0.0117,0.0106,0.0113,0.0112,0.0091,0.0087,0.0076,0.0061,0.0054,0.0031,0.0008,-0.0005,-0.0012,-0.0031,-0.0029,-0.0073,-0.0023,-0.0016,-0.001,-0.0004,-0.0059,-0.0056,-0.008,-0.008,-0.008,0,0,0.0114,0.0113,0.0117,0.0117,0.0108,0.0125,0.0088,0.0088,0.0105,0.0049,0.0061,0.003,0.0,0.0003,0.0001,-0.0014,-0.0026,-0.0008,-0.0002,0.0,-0.0057,-0.0054,-0.0053,-0.0079,-0.0079,-0.0079,0,0,0.014,0.0134,0.0154,0.0157,0.0153,0.0146,0.0151,0.0136,0.0132,0.0138,0.0103,0.0085,0.0067,0.0049,0.0038,0.007,0.001,0.0063,0.0111,0.0059,0.006,0.0061,0.0009,0.0005,0.0069,0.0069,0.0069,0,0.0148,0.0179,0.0158,0.0183,0.0197,0.0163,0.0197,0.0189,0.0174,0.0175,0.0155,0.012,0.0092,0.0092,0.0105,0.0086,0.0043,0.0085,0.0067,0.0067,0.0066,0.0013,0.0007,0.0073,0.0073,0.0073,0.0072,0,0.0194,0.0221,0.0234,0.0261,0.027,0.0291,0.0285,0.0289,0.0278,0.0264,0.0255,0.0209,0.0189,0.0176,0.0153,0.0141,0.0107,0.008,0.0047,0.0073,0.0016,0.0008,0.0079,0.0078,0.0077,0.0076,0,0,0.0213,0.026,0.0266,0.0303,0.0318,0.0336,0.0363,0.0379,0.0397,0.0363,0.0376,0.0341,0.0298,0.0283,0.0238,0.0193,0.015,0.0142,0.0137,0.0093,0.0029,0.0014,0.0004,0.0115,0.0114,0.0113,-0.0008,0,0.026,0.0333,0.0341,0.0416,0.0458,0.045,0.0485,0.0489,0.0474,0.0473,0.0411,0.0403,0.0345,0.0334,0.028,0.0181,0.0133,0.0186,0.0009,0.0004,-0.0011,-0.0004,0.011,-0.0015,-0.0017,-0.0018,-0.0019,0,0.0308,0.0357,0.0441,0.0516,0.0533,0.0572,0.0618,0.0645,0.0624,0.0609,0.0568,0.0508,0.0446,0.039,0.0231,0.0264,0.016,0.0075,0.0068,0.0021,-0.0025,-0.0048,-0.0034,-0.0033,-0.0032,-0.0031,-0.003,0,0.0346,0.0429,0.0506,0.0531,0.0602,0.0643,0.0681,0.0687,0.0723,0.0691,0.0692,0.0592,0.0551,0.0404,0.0228,0.0227,0.0037,0.0012,-0.0101,-0.0104,-0.009,-0.009,-0.0099,-0.0099,-0.0099,-0.0099,-0.0098,0,0.0403,0.0466,0.0536,0.0583,0.0685,0.0708,0.0797,0.0809,0.0829,0.0869,0.0768,0.0754,0.0551,0.0415,0.0248,0.0048,0.0048,-0.0092,-0.0135,-0.0053,-0.0047,-0.0096,-0.0094,-0.0103,-0.0102,-0.0101,-0.01,0,0.0441,0.0484,0.0582,0.0673,0.0711,0.0787,0.0897,0.095,0.0953,0.0996,0.0992,0.0873,0.0694,0.0475,0.0228,0.0087,-0.0111,-0.0182,-0.0077,-0.0112,-0.0221,-0.0214,-0.0314,-0.0315,-0.0317,-0.0318,-0.0318,0,0.047,0.0522,0.0646,0.0718,0.0771,0.0884,0.0963,0.1014,0.107,0.1066,0.1087,0.0935,0.0824,0.0472,0.0228,-0.01,-0.0145,-0.0253,-0.0237,-0.0211,-0.0243,-0.0233,-0.0224,-0.032,-0.0321,-0.0321,-0.0321,0,0.0524,0.0562,0.0643,0.0784,0.0888,0.1008,0.112,0.117,0.1218,0.122,0.1169,0.0981,0.0774,0.0486,0.0226,-0.0009,-0.0188,-0.0267,-0.0266,-0.0251,-0.0221,-0.0249,-0.0239,-0.0326,-0.0325,-0.0325,-0.0325,0,0.0557,0.0617,0.0714,0.0846,0.0972,0.1088,0.1152,0.1219,0.1273,0.1268,0.1244,0.1017,0.089,0.0532,0.0292,0.0056,-0.0003,-0.0079,-0.0088,-0.0086,0.0009,0.0083,0.0038,0,0,0,0,0,0.0587,0.0657,0.0771,0.0909,0.103,0.1109,0.1234,0.1282,0.1323,0.1308,0.1285,0.1095,0.0738,0.0581,0.0345,0.0245,-0.0063,-0.0043,-0.016,-0.035,-0.0345,-0.0274,0,0,0,0,0,0,0.0607,0.0711,0.0767,0.0927,0.1027,0.1164,0.1246,0.1283,0.1281,0.1285,0.1107,0.1028,0.0685,0.0876,0.0338,0.0264,0.0155,-0.0204,-0.0209,-0.0353,-0.0349,-0.0345,-0.0269,0,0,0,0,0]}]]